Location: Unspecified
(0.0000°N, 0.0000°E)
Time: 11:08:32
(UTC+00:00)

Vanguard 2 - Pass Details

Date: 09 October 2022
Orbit: 553 x 2933 km, 32.9° (Epoch: 29 November)

Event Time Altitude Azimuth Distance (km) Brightness Sun altitude
Rises 19:00:49 0° 303° (WNW) 6,559 13.1 -18.3°
Reaches altitude 10° 19:04:59 10° 303° (WNW) 5,669 12.6 -19.3°
Maximum altitude 19:23:05 81° 217° (SW) 2,816 10.3 -23.8°
Enters shadow 19:35:41 18° 131° (SE) 4,264 10.9 -26.9°
